THOR ABLESTAR DEB, 706

Orbit data source: Space-Track

THOR ABLESTAR DEB, 706 is space debris in LEO originally from a launch on Thu, 05 Dec 1963 UTC launched from the Air Force Western Test Range (AFWTR). Debris objects in space refer to the collection of defunct objects orbiting the Earth. Examples of debris include non-operational satellites, rocket bodies, and fragments generated from explosions, collisions, or faulty payload assembly.

Loading next visibility...
Identifier
706, 1963-049D
Orbit
LEO
Country
Flag of USUS
Related business
Manufacturer
Unknown
Mission
Spacecraft
Bus & Motor
Unknown
Mass
Unknown
Launch date (UTC)
1963-12-05 (62 years ago)
Launch vehicle
Unknown
Launch site
Air Force Western Test Range (AFWTR)
Object type
Payload
Rocket body
Debris
Shape & HBR
Unknown shape, 0.1 m
Radar Cross Section
Small (<0.1 m²)

Expand to show TLE details & history
Last TLE update: 9 hours ago

TLE from 9 hours ago
0 THOR ABLESTAR DEB
1 00706U 63049D   25309.13915689  .00000266  00000-0  36373-3 0  9995
2 00706  89.9155  74.9923 0026291 358.4116 123.7971 13.56486921 52938
Epoch: 2025-11-05T03:20Z
TLE epoch observation values (Epoch: 2025-11-05T03:20:23.155Z)
Latitude
57.63372°
Longitude
160.14706°
Altitude
1,069.159 km
Speed
7.317 km/s
True Right ascension
16h 59m 26s
True Declination
57° 29' 04"
Sunlit
Object was in daylight at epoch
Visualization orbit readout
Latitude
Unknown
Longitude
Unknown
Altitude
Unknown
Speed
Unknown
Apparent Right ascension
Unknown
Apparent Declination
Unknown
Sunlit
N/A
Visualization observer readout
Local Sidereal Time
08:01:29
Azimuth
Unknown
Elevation
Unknown
Doppler factor
Unknown
Orbital elements
Apogee altitude
1,065.045 km
Perigee altitude
1,026.01 km
Semi-major axis
7,423.664 km
Eccentricity
0.00263
Inclination
89.9155°
RAAN
74.9923°
Arg. of periapsis
358.4116°
True anomaly
124.047°
Mean anomaly
123.7971°
Eccentric anomaly
123.9221°
Mean motion
3.39325 °/min
Orbital period
106.09 mins
BSTAR
0.00036373
Loading maneuver chart data...
Computing Atmospheric mass density...
Loading historical data...
Loading historical data...
Loading historical data...
Loading historical data...
Loading historical data...
Loading historical data...
Loading historical data...

Documentation

Showing up to 5 results
|